Location: Napier
(39.4830°S, 176.9170°E)
Time: 14:51:37
(UTC+12:00)

Cosmos 2369 Rocket - Pass Details

Date: 15 August 2020
Orbit: 828 x 853 km, 71.0° (Epoch: 23 September)

Event Time Altitude Azimuth Distance (km) Brightness Sun altitude
Rises 18:49:45 0° 340° (NNW) 3,412 5.7 -15.1°
Reaches altitude 10° 18:52:11 10° 340° (NNW) 2,484 5.0 -15.5°
Maximum altitude 18:57:55 88° 66° (ENE) 868 2.2 -16.6°
Drops below altitude 10° 19:03:43 10° 156° (SSE) 2,510 4.4 -17.7°
Enters shadow 19:05:40 - 156° (SSE) 3,253 5.0 -18.1°
